K1FFK-1 Weather Reports


time (UTC)temp
C
wind
direction
speed
KPH
gust
KPH
rain 1hr
cm
rain 24hr
cm
rain mn
cm
humidity
%
barometer
mb
20260505004134 10 194 9.7 9.7 0.00 0.00 0.00 63 1013.3
20260505003133 10 209 8.0 8.0 0.00 0.00 0.00 61 1013.2
20260505002133 10 187 8.0 8.0 0.00 0.00 0.00 60 1013.1
20260505001134 10 191 8.0 8.0 0.00 0.00 0.00 59 1013.0
20260505000134 10 191 8.0 8.0 0.00 0.00 0.00 60 1012.9
20260504235133 10 191 6.4 6.4 0.00 0.00 0.00 59 1012.8
20260504234133 10 191 6.4 6.4 0.00 0.00 0.00 60 1012.8
20260504233135 10 189 8.0 8.0 0.00 0.00 0.00 59 1012.7
20260504232134 11 177 6.4 6.4 0.00 0.00 0.00 58 1012.6
20260504231133 11 180 4.8 4.8 0.00 0.00 0.00 55 1012.6
20260504230133 11 202 4.8 4.8 0.00 0.00 0.00 54 1012.4
20260504225134 12 180 6.4 6.4 0.00 0.00 0.00 51 1012.4
20260504224134 12 232 3.2 3.2 0.00 0.00 0.00 52 1012.2
20260504223134 12 201 3.2 3.2 0.00 0.00 0.00 52 1012.5
20260504222134 12 194 3.2 3.2 0.00 0.00 0.00 50 1012.3
20260504221134 12 181 3.2 3.2 0.00 0.00 0.00 50 1012.4
20260504220134 13 223 3.2 3.2 0.00 0.00 0.00 50 1012.5
20260504215134 13 196 4.8 4.8 0.00 0.00 0.00 48 1012.5
20260504214134 12 222 4.8 4.8 0.00 0.00 0.00 52 1012.2
20260504213134 13 261 6.4 6.4 0.00 0.00 0.00 50 1012.5
20260504212133 12 234 4.8 4.8 0.00 0.00 0.00 52 1012.5
20260504211134 12 196 4.8 4.8 0.00 0.00 0.00 52 1012.5
20260504210134 12 227 4.8 4.8 0.00 0.00 0.00 53 1012.4
20260504205133 12 220 4.8 4.8 0.00 0.00 0.00 49 1012.5
20260504204133 12 303 6.4 6.4 0.00 0.00 0.00 51 1012.3
20260504203134 12 253 6.4 6.4 0.00 0.00 0.00 52 1012.5
20260504202134 13 306 3.2 3.2 0.00 0.00 0.00 50 1012.5
20260504201133 13 288 4.8 4.8 0.00 0.00 0.00 50 1012.6
20260504200134 12 210 4.8 4.8 0.00 0.00 0.00 51 1012.5
20260504195133 13 278 4.8 4.8 0.00 0.00 0.00 48 1012.5
20260504194133 12 251 3.2 3.2 0.00 0.00 0.00 52 1012.6
20260504193133 12 286 4.8 4.8 0.00 0.00 0.00 51 1012.7
20260504192133 12 213 3.2 3.2 0.00 0.00 0.00 53 1012.7
20260504191134 11 203 4.8 4.8 0.00 0.00 0.00 55 1012.7
20260504190133 11 209 4.8 4.8 0.00 0.00 0.00 55 1012.7
20260504185133 10 237 4.8 4.8 0.00 0.00 0.00 56 1012.6
20260504184134 10 243 0.0 0.0 0.00 0.00 0.00 57 1012.7
20260504183133 10 212 3.2 3.2 0.00 0.00 0.00 57 1012.7
20260504182134 10 298 3.2 3.2 0.00 0.00 0.00 55 1012.7
20260504181134 10 181 4.8 4.8 0.00 0.00 0.00 56 1012.8
20260504180134 10 296 3.2 3.2 0.00 0.00 0.00 56 1012.9
20260504175133 11 239 4.8 4.8 0.00 0.00 0.00 55 1012.9
20260504174133 11 291 3.2 3.2 0.00 0.00 0.00 55 1013.0
20260504173133 10 270 4.8 4.8 0.00 0.00 0.00 57 1013.1
20260504172133 10 334 3.2 3.2 0.00 0.00 0.00 56 1013.0
20260504171134 10 296 3.2 3.2 0.00 0.00 0.00 55 1013.1
20260504170134 11 250 4.8 4.8 0.00 0.00 0.00 53 1012.7
20260504160133 11 191 8.0 8.0 0.00 0.00 0.00 53 1013.0
20260504151134 8 295 6.4 6.4 0.00 0.00 0.00 59 1013.2
20260504150134 8 201 6.4 6.4 0.00 0.00 0.00 59 1013.3
20260504141134 7 309 6.4 6.4 0.00 0.00 0.00 62 1013.2
20260504140134 6 300 8.0 8.0 0.00 0.00 0.00 63 1013.3
20260504130134 5 329 6.4 6.4 0.00 0.00 0.00 66 1013.1
20260504120134 3 285 6.4 6.4 0.00 0.00 0.00 70 1013.3
20260504110134 3 309 8.0 8.0 0.00 0.00 0.00 72 1012.7
20260504100135 2 292 11.3 11.3 0.00 0.00 0.00 72 1012.1
20260504090133 2 227 4.8 4.8 0.00 0.00 0.00 76 1012.0
20260504081133 2 299 8.0 8.0 0.00 0.00 0.00 75 1012.3
20260504080133 2 306 8.0 8.0 0.00 0.00 0.00 76 1012.3
20260504070133 2 330 11.3 11.3 0.00 0.00 0.00 78 1012.0
20260504060134 2 340 12.9 12.9 0.00 0.00 0.00 78 1012.1
20260504050133 1 327 12.9 12.9 0.00 0.00 0.00 75 1012.5
20260504045133 1 336 8.0 8.0 0.00 0.00 0.00 74 1012.6
20260504044133 1 326 11.3 11.3 0.00 0.00 0.00 75 1012.7
20260504043134 1 329 11.3 11.3 0.00 0.00 0.00 75 1012.6
20260504042134 1 329 9.7 9.7 0.00 0.00 0.00 74 1012.6
20260504041134 1 327 9.7 9.7 0.00 0.00 0.00 74 1012.5
20260504040134 1 330 11.3 11.3 0.00 0.00 0.00 74 1012.4
20260504035133 1 341 14.5 14.5 0.00 0.00 0.00 74 1012.3
20260504034134 1 334 12.9 12.9 0.00 0.00 0.00 74 1012.4
20260504033134 1 341 14.5 14.5 0.00 0.00 0.00 74 1012.2
20260504032133 1 336 12.9 12.9 0.00 0.00 0.00 73 1012.2
20260504031134 1 334 12.9 12.9 0.00 0.00 0.00 72 1012.1
20260504030134 1 330 11.3 11.3 0.00 0.00 0.00 71 1012.1
20260504025134 1 334 9.7 9.7 0.00 0.00 0.00 69 1012.2
20260504024134 1 334 11.3 11.3 0.00 0.00 0.00 68 1012.2
20260504023134 1 326 12.9 12.9 0.00 0.00 0.00 67 1012.2
20260504022133 1 326 17.7 17.7 0.00 0.00 0.00 66 1012.1
20260504021133 1 334 14.5 14.5 0.00 0.00 0.00 65 1012.2
20260504020134 1 334 12.9 12.9 0.00 0.00 0.00 64 1012.1
20260504015134 1 337 14.5 14.5 0.00 0.00 0.00 63 1012.1
20260504014133 2 337 11.3 11.3 0.00 0.00 0.00 63 1011.9
20260504013133 1 329 16.1 16.1 0.00 0.00 0.00 62 1011.7
20260504012134 1 322 14.5 14.5 0.00 0.00 0.00 62 1011.7
20260504011133 1 327 14.5 14.5 0.00 0.00 0.00 61 1011.6
20260504010133 2 330 14.5 14.5 0.00 0.00 0.00 59 1011.6
20260504005133 2 327 17.7 17.7 0.00 0.00 0.00 58 1011.2